Time,TemperatureF,DewpointF,PressureIn,WindDirection,WindDirectionDegrees,WindSpeedMPH,WindSpeedGustMPH,Humidity,HourlyPrecipIn,Conditions,Clouds,dailyrainin,SoftwareType,DateUTC
2013-06-25 00:05:00,72.0,68.0,29.82,West,277,1.0,7.0,87,0.00,,,0.00,weatherlink.com 1.10,2013-06-25 05:05:00,
2013-06-25 00:20:00,71.7,68.0,29.82,WNW,289,0.0,3.0,88,0.00,,,0.00,weatherlink.com 1.10,2013-06-25 05:20:00,
2013-06-25 00:35:00,71.5,68.0,29.81,West,279,2.0,4.0,88,0.00,,,0.00,weatherlink.com 1.10,2013-06-25 05:35:00,
2013-06-25 00:50:00,71.3,68.0,29.82,West,261,3.0,5.0,88,0.00,,,0.00,weatherlink.com 1.10,2013-06-25 05:50:00,
2013-06-25 01:05:00,71.3,68.0,29.82,WNW,302,0.0,7.0,88,0.00,,,0.00,weatherlink.com 1.10,2013-06-25 06:05:00,
2013-06-25 01:20:00,71.1,67.0,29.82,NW,311,1.0,5.0,88,0.00,,,0.00,weatherlink.com 1.10,2013-06-25 06:20:00,
2013-06-25 01:35:00,70.9,67.0,29.81,WNW,296,0.0,3.0,88,0.00,,,0.00,weatherlink.com 1.10,2013-06-25 06:35:00,
2013-06-25 01:50:00,70.9,68.0,29.82,WNW,284,2.0,5.0,89,0.00,,,0.00,weatherlink.com 1.10,2013-06-25 06:50:00,
2013-06-25 02:05:00,71.0,68.0,29.82,West,275,1.0,5.0,89,0.00,,,0.00,weatherlink.com 1.10,2013-06-25 07:05:00,
2013-06-25 02:20:00,70.7,67.0,29.82,West,261,7.0,8.0,89,0.00,,,0.00,weatherlink.com 1.10,2013-06-25 07:20:00,
2013-06-25 02:35:00,70.2,68.0,29.81,West,267,5.0,9.0,91,0.00,,,0.00,weatherlink.com 1.10,2013-06-25 07:35:00,
2013-06-25 02:50:00,70.0,68.0,29.80,SW,236,5.0,7.0,92,0.00,,,0.00,weatherlink.com 1.10,2013-06-25 07:50:00,
2013-06-25 03:05:00,69.8,67.0,29.81,West,273,3.0,9.0,92,0.01,,,0.01,weatherlink.com 1.10,2013-06-25 08:05:00,
2013-06-25 03:20:00,69.5,67.0,29.80,WSW,258,7.0,9.0,92,0.02,,,0.02,weatherlink.com 1.10,2013-06-25 08:20:00,
2013-06-25 03:35:00,69.1,67.0,29.81,WSW,249,9.0,10.0,92,0.03,,,0.03,weatherlink.com 1.10,2013-06-25 08:35:00,
2013-06-25 03:50:00,68.9,67.0,29.81,West,260,2.0,9.0,93,0.03,,,0.03,weatherlink.com 1.10,2013-06-25 08:50:00,
2013-06-25 04:05:00,68.8,67.0,29.81,NNW,336,3.0,8.0,93,0.02,,,0.03,weatherlink.com 1.10,2013-06-25 09:05:00,
2013-06-25 04:20:00,68.7,67.0,29.81,West,277,2.0,7.0,93,0.01,,,0.03,weatherlink.com 1.10,2013-06-25 09:20:00,
2013-06-25 04:35:00,68.4,66.0,29.82,WNW,292,2.0,6.0,93,0.00,,,0.03,weatherlink.com 1.10,2013-06-25 09:35:00,
2013-06-25 04:50:00,68.2,67.0,29.83,NNW,346,3.0,11.0,94,0.00,,,0.03,weatherlink.com 1.10,2013-06-25 09:50:00,
2013-06-25 05:05:00,68.0,66.0,29.82,South,183,3.0,9.0,94,0.00,,,0.03,weatherlink.com 1.10,2013-06-25 10:05:00,
2013-06-25 05:20:00,67.9,66.0,29.81,West,267,1.0,8.0,94,0.00,,,0.03,weatherlink.com 1.10,2013-06-25 10:20:00,
2013-06-25 05:35:00,67.9,66.0,29.79,NW,309,1.0,6.0,94,0.00,,,0.03,weatherlink.com 1.10,2013-06-25 10:35:00,
2013-06-25 05:50:00,68.0,66.0,29.79,WNW,286,1.0,4.0,94,0.00,,,0.03,weatherlink.com 1.10,2013-06-25 10:50:00,
2013-06-25 06:05:00,67.9,66.0,29.79,North,360,1.0,5.0,94,0.00,,,0.03,weatherlink.com 1.10,2013-06-25 11:05:00,
2013-06-25 06:20:00,67.9,66.0,29.80,WSW,258,3.0,5.0,94,0.00,,,0.03,weatherlink.com 1.10,2013-06-25 11:20:00,
2013-06-25 06:35:00,68.0,66.0,29.79,West,276,3.0,5.0,94,0.00,,,0.03,weatherlink.com 1.10,2013-06-25 11:35:00,
2013-06-25 06:50:00,68.0,66.0,29.79,SW,230,2.0,6.0,94,0.00,,,0.03,weatherlink.com 1.10,2013-06-25 11:50:00,
2013-06-25 07:05:00,68.4,67.0,29.81,NNW,338,1.0,9.0,94,0.00,,,0.03,weatherlink.com 1.10,2013-06-25 12:05:00,
2013-06-25 07:20:00,69.0,67.0,29.82,NW,314,4.0,7.0,93,0.00,,,0.03,weatherlink.com 1.10,2013-06-25 12:20:00,
2013-06-25 07:35:00,70.0,67.0,29.83,West,281,1.0,6.0,91,0.00,,,0.00,weatherlink.com 1.10,2013-06-25 12:35:00,
2013-06-25 07:50:00,71.1,68.0,29.83,NNE,15,1.0,4.0,89,0.00,,,0.00,weatherlink.com 1.10,2013-06-25 12:50:00,
2013-06-25 08:05:00,71.2,68.0,29.83,WSW,238,3.0,7.0,88,0.00,,,0.00,weatherlink.com 1.10,2013-06-25 13:05:00,
2013-06-25 08:20:00,70.5,67.0,29.84,West,281,2.0,9.0,88,0.00,,,0.00,weatherlink.com 1.10,2013-06-25 13:20:00,
2013-06-25 08:35:00,70.7,67.0,29.84,North,355,1.0,9.0,88,0.00,,,0.00,weatherlink.com 1.10,2013-06-25 13:35:00,
2013-06-25 08:50:00,70.9,67.0,29.85,West,275,2.0,6.0,88,0.00,,,0.00,weatherlink.com 1.10,2013-06-25 13:50:00,
2013-06-25 09:05:00,71.0,67.0,29.84,North,9,1.0,7.0,87,0.00,,,0.00,weatherlink.com 1.10,2013-06-25 14:05:00,
2013-06-25 09:20:00,71.9,67.0,29.82,WSW,241,0.0,7.0,85,0.00,,,0.00,weatherlink.com 1.10,2013-06-25 14:20:00,
2013-06-25 09:36:00,72.5,67.0,29.81,West,259,4.0,4.0,84,0.00,,,0.00,weatherlink.com 1.10,2013-06-25 14:36:00,
2013-06-25 09:51:00,72.4,68.0,29.81,West,266,3.0,6.0,85,0.00,,,0.00,weatherlink.com 1.10,2013-06-25 14:51:00,
2013-06-25 10:06:00,72.6,67.0,29.80,South,175,2.0,7.0,83,0.00,,,0.00,weatherlink.com 1.10,2013-06-25 15:06:00,
2013-06-25 10:21:00,73.0,67.0,29.80,SW,219,1.0,8.0,82,0.00,,,0.00,weatherlink.com 1.10,2013-06-25 15:21:00,
2013-06-25 10:36:00,73.9,67.0,29.79,SSE,157,4.0,8.0,80,0.00,,,0.00,weatherlink.com 1.10,2013-06-25 15:36:00,
2013-06-25 10:51:00,74.2,67.0,29.79,SSE,158,4.0,9.0,79,0.00,,,0.00,weatherlink.com 1.10,2013-06-25 15:51:00,
2013-06-25 11:06:00,74.7,67.0,29.77,NE,37,3.0,13.0,77,0.00,,,0.00,weatherlink.com 1.10,2013-06-25 16:06:00,
2013-06-25 11:21:00,76.4,68.0,29.80,SSW,211,3.0,7.0,75,0.00,,,0.00,weatherlink.com 1.10,2013-06-25 16:21:00,
2013-06-25 11:36:00,75.8,68.0,29.80,South,186,3.0,13.0,76,0.00,,,0.00,weatherlink.com 1.10,2013-06-25 16:36:00,
2013-06-25 11:51:00,76.6,68.0,29.81,SW,217,7.0,11.0,75,0.00,,,0.00,weatherlink.com 1.10,2013-06-25 16:51:00,
2013-06-25 12:06:00,76.8,68.0,29.81,SSW,207,7.0,11.0,73,0.00,,,0.00,weatherlink.com 1.10,2013-06-25 17:06:00,
2013-06-25 12:21:00,77.8,68.0,29.80,SSW,212,4.0,8.0,72,0.00,,,0.00,weatherlink.com 1.10,2013-06-25 17:21:00,
2013-06-25 12:36:00,77.8,68.0,29.80,SSW,206,2.0,10.0,72,0.00,,,0.00,weatherlink.com 1.10,2013-06-25 17:36:00,
2013-06-25 12:51:00,78.2,68.0,29.80,WSW,240,8.0,11.0,70,0.00,,,0.00,weatherlink.com 1.10,2013-06-25 17:51:00,
2013-06-25 13:06:00,79.4,67.0,29.80,West,259,1.0,8.0,67,0.00,,,0.00,weatherlink.com 1.10,2013-06-25 18:06:00,
2013-06-25 13:21:00,80.9,68.0,29.79,West,263,2.0,8.0,64,0.00,,,0.00,weatherlink.com 1.10,2013-06-25 18:21:00,
2013-06-25 13:36:00,80.7,69.0,29.80,West,280,10.0,12.0,67,0.00,,,0.00,weatherlink.com 1.10,2013-06-25 18:36:00,
2013-06-25 13:51:00,79.3,69.0,29.80,WSW,254,10.0,16.0,70,0.00,,,0.00,weatherlink.com 1.10,2013-06-25 18:51:00,
2013-06-25 14:06:00,80.0,69.0,29.80,East,96,2.0,11.0,69,0.00,,,0.00,weatherlink.com 1.10,2013-06-25 19:06:00,
2013-06-25 14:21:00,79.0,69.0,29.80,West,263,6.0,12.0,72,0.00,,,0.00,weatherlink.com 1.10,2013-06-25 19:21:00,
2013-06-25 14:36:00,78.2,69.0,29.80,WSW,238,0.0,11.0,74,0.00,,,0.00,weatherlink.com 1.10,2013-06-25 19:36:00,
2013-06-25 14:51:00,79.1,69.0,29.79,SW,217,3.0,11.0,71,0.00,,,0.00,weatherlink.com 1.10,2013-06-25 19:51:00,
2013-06-25 15:06:00,81.7,70.0,29.79,SSW,204,0.0,7.0,67,0.00,,,0.00,weatherlink.com 1.10,2013-06-25 20:06:00,
2013-06-25 15:21:00,81.7,69.0,29.79,South,185,2.0,6.0,66,0.00,,,0.00,weatherlink.com 1.10,2013-06-25 20:21:00,
2013-06-25 15:36:00,81.2,70.0,29.79,SW,225,5.0,7.0,68,0.00,,,0.00,weatherlink.com 1.10,2013-06-25 20:36:00,
2013-06-25 15:51:00,81.5,70.0,29.77,SSW,210,5.0,8.0,67,0.00,,,0.00,weatherlink.com 1.10,2013-06-25 20:51:00,
2013-06-25 16:06:00,81.4,70.0,29.77,SSW,208,2.0,8.0,69,0.00,,,0.00,weatherlink.com 1.10,2013-06-25 21:06:00,
2013-06-25 16:21:00,82.4,70.0,29.76,SW,229,3.0,7.0,67,0.00,,,0.00,weatherlink.com 1.10,2013-06-25 21:21:00,
2013-06-25 16:36:00,82.2,71.0,29.76,SW,221,5.0,10.0,68,0.00,,,0.00,weatherlink.com 1.10,2013-06-25 21:36:00,
2013-06-25 16:51:00,82.7,71.0,29.76,WSW,246,2.0,9.0,67,0.00,,,0.00,weatherlink.com 1.10,2013-06-25 21:51:00,
2013-06-25 17:06:00,83.2,70.0,29.75,SSW,207,2.0,8.0,65,0.00,,,0.00,weatherlink.com 1.10,2013-06-25 22:06:00,
2013-06-25 17:21:00,83.8,70.0,29.75,WSW,258,5.0,8.0,64,0.00,,,0.00,weatherlink.com 1.10,2013-06-25 22:21:00,
2013-06-25 17:36:00,83.8,70.0,29.75,SW,222,3.0,5.0,64,0.00,,,0.00,weatherlink.com 1.10,2013-06-25 22:36:00,
2013-06-25 17:51:00,84.4,70.0,29.75,West,281,2.0,7.0,63,0.00,,,0.00,weatherlink.com 1.10,2013-06-25 22:51:00,
2013-06-25 18:06:00,83.4,70.0,29.75,WSW,242,0.0,9.0,65,0.00,,,0.00,weatherlink.com 1.10,2013-06-25 23:06:00,
2013-06-25 18:21:00,83.2,71.0,29.75,SW,221,2.0,7.0,66,0.00,,,0.00,weatherlink.com 1.10,2013-06-25 23:21:00,
2013-06-25 18:36:00,83.4,71.0,29.75,SW,235,5.0,6.0,66,0.00,,,0.00,weatherlink.com 1.10,2013-06-25 23:36:00,
2013-06-25 18:51:00,82.4,71.0,29.75,SW,230,3.0,8.0,68,0.00,,,0.00,weatherlink.com 1.10,2013-06-25 23:51:00,
2013-06-25 19:06:00,81.6,71.0,29.75,West,273,4.0,6.0,71,0.00,,,0.00,weatherlink.com 1.10,2013-06-26 00:06:00,
2013-06-25 19:21:00,82.4,72.0,29.75,WNW,292,0.0,5.0,70,0.00,,,0.00,weatherlink.com 1.10,2013-06-26 00:21:00,
2013-06-25 19:36:00,83.3,72.0,29.74,West,265,1.0,5.0,68,0.00,,,0.00,weatherlink.com 1.10,2013-06-26 00:36:00,
2013-06-25 19:51:00,82.5,72.0,29.75,West,263,3.0,4.0,70,0.00,,,0.00,weatherlink.com 1.10,2013-06-26 00:51:00,
2013-06-25 20:06:00,81.0,72.0,29.75,South,178,6.0,7.0,73,0.00,,,0.00,weatherlink.com 1.10,2013-06-26 01:06:00,
2013-06-25 20:21:00,80.4,72.0,29.74,SW,217,6.0,7.0,75,0.00,,,0.00,weatherlink.com 1.10,2013-06-26 01:21:00,
2013-06-25 20:36:00,79.7,72.0,29.74,SSW,195,3.0,5.0,77,0.00,,,0.00,weatherlink.com 1.10,2013-06-26 01:36:00,
2013-06-25 20:51:00,79.2,72.0,29.74,SSW,196,4.0,7.0,78,0.00,,,0.00,weatherlink.com 1.10,2013-06-26 01:51:00,
2013-06-25 21:06:00,78.8,71.0,29.74,SSW,198,2.0,6.0,78,0.00,,,0.00,weatherlink.com 1.10,2013-06-26 02:06:00,
2013-06-25 21:21:00,78.5,72.0,29.75,SSW,195,4.0,7.0,79,0.00,,,0.00,weatherlink.com 1.10,2013-06-26 02:21:00,
2013-06-25 21:36:00,78.3,72.0,29.75,South,182,3.0,6.0,80,0.00,,,0.00,weatherlink.com 1.10,2013-06-26 02:36:00,
2013-06-25 21:51:00,78.0,71.0,29.75,South,184,3.0,6.0,80,0.00,,,0.00,weatherlink.com 1.10,2013-06-26 02:51:00,
2013-06-25 22:06:00,77.5,72.0,29.75,South,182,2.0,7.0,82,0.00,,,0.00,weatherlink.com 1.10,2013-06-26 03:06:00,
2013-06-25 22:21:00,77.0,71.0,29.74,South,178,3.0,7.0,82,0.00,,,0.00,weatherlink.com 1.10,2013-06-26 03:21:00,
2013-06-25 22:36:00,76.5,71.0,29.75,SSW,202,6.0,6.0,83,0.00,,,0.00,weatherlink.com 1.10,2013-06-26 03:36:00,
2013-06-25 22:51:00,75.8,71.0,29.73,SSW,198,6.0,8.0,85,0.00,,,0.00,weatherlink.com 1.10,2013-06-26 03:51:00,
2013-06-25 23:07:00,75.5,71.0,29.73,SSW,203,4.0,7.0,86,0.00,,,0.00,weatherlink.com 1.10,2013-06-26 04:07:00,
2013-06-25 23:22:00,75.2,71.0,29.73,South,180,2.0,6.0,87,0.00,,,0.00,weatherlink.com 1.10,2013-06-26 04:22:00,
2013-06-25 23:37:00,74.9,71.0,29.73,South,174,6.0,8.0,88,0.00,,,0.00,weatherlink.com 1.10,2013-06-26 04:37:00,
2013-06-25 23:52:00,74.6,71.0,29.73,South,188,5.0,11.0,88,0.00,,,0.00,weatherlink.com 1.10,2013-06-26 04:52:00,